Regional Weather Roundup
Issued by NWS

Home | Current Version | Previous Version | Text Only | Print | Product List | Glossary Off
Versions: 1 2 3 4 5 6 7 8 9 10 11 12 13 14 15 16 17 18 19 20 21 22 23 24 25 26 27 28 29 30 31 32 33 34 35 36 37 38 39 40 41 42 43 44 45 46 47 48 49 50

527
ASUS43 KDMX 280206
RWRIA

WEATHER ROUNDUP FOR IOWA
NATIONAL WEATHER SERVICE DES MOINES IA
800 PM CST MON FEB 27 2017

NOTE: "FAIR" INDICATES FEW OR NO CLOUDS BELOW 12,000 FEET WITH NO
SIGNIFICANT WEATHER AND/OR OBSTRUCTIONS TO VISIBILITY.

* - THESE STATIONS ARE NOT NWS STATIONS...THUS NOT UNDER NWS
QUALITY CONTROL.  THEY ALSO DO NOT REPORT WEATHER SUCH
AS PRECIPITATION OR FOG.

IAZ001>003-012>014-020>022-031>034-043>046-280300-
   NORTHWEST IOWA

CITY           SKY/WX    TMP DP  RH WIND       PRES   REMARKS
CARROLL *      CLOUDY    41  36  81 SE13      29.79F
CHEROKEE *     CLOUDY    38  32  79 N3        29.78S
DENISON *      MOCLDY    45  28  53 SE20G26   29.74S
LE MARS *      CLOUDY    39  32  75 E8        29.77S WCI  34
SHELDON *      CLOUDY    39  34  81 SE12      29.76S WCI  32
SIOUX CITY     CLOUDY    41  31  67 SE10      29.75S
SPENCER        CLOUDY    36  31  82 E6        29.80S WCI  31
STORM LAKE *   CLOUDY    37  32  81 SE13      29.78S WCI  29
$$

IAZ055>058-069>071-079>083-090>094-280300-
   SOUTHWEST IOWA

CITY           SKY/WX    TMP DP  RH WIND       PRES   REMARKS
ATLANTIC *     CLOUDY    48  32  53 E8G14     29.76F
AUDUBON *      CLOUDY    41  34  75 E3        29.79F
CLARINDA *     CLOUDY    52  32  46 S3        29.79R
COUNCIL BLFS * MOCLDY    46  32  57 E7        29.75S
CRESTON *      CLOUDY    48  32  53 SE12      29.79F
HARLAN  *      CLOUDY    43  34  70 CALM      29.81S
LAMONI         CLOUDY    54  30  40 SE7       29.80F
RED OAK *      CLOUDY    48  32  53 SE3       29.76F
SHENANDOAH *   CLOUDY    52  34  50 E5        29.76S
$$

IAZ047>049-059>061-072>074-084-280300-
   CENTRAL IOWA

CITY           SKY/WX    TMP DP  RH WIND       PRES   REMARKS
AMES           CLOUDY    47  33  58 E7        29.86S
ANKENY *       CLOUDY    48  34  57 NE6       29.85F
BOONE *        CLOUDY    43  36  75 SE14      29.83F
CHARITON *     CLOUDY    48  34  57 E8        29.82F
DES MOINES     CLOUDY    52  28  39 E10       29.82F
GRINNELL*      LGT RAIN  48  32  53 SE12G17   29.89S
KNOXVILLE *    CLOUDY    48  28  46 E8        29.83S
MARSHALLTOWN   LGT RAIN  48  33  56 S18G37    29.89R
NEWTON *       CLOUDY    48  32  53 E12G17    29.86F
PELLA *        MOCLDY    48  32  53 E8        29.87F
PERRY *        CLOUDY    46  30  54 E12       29.82F
$$

IAZ004>006-015-016-023>025-035-036-280300-
   NORTH CENTRAL IOWA

CITY           SKY/WX    TMP DP  RH WIND       PRES   REMARKS
ALGONA *       CLOUDY    39  34  81 SE9       29.82S WCI  33
CLARION *      CLOUDY    39  32  75 SE15G22   29.82S WCI  31
ESTHERVILLE    CLOUDY    35  32  88 SE9       29.80S WCI  28
FORT DODGE *   CLOUDY    45  28  53 S14G21    29.83R
MASON CITY     CLOUDY    39  30  70 SE13      29.86R WCI  31
FOREST CITY *  CLOUDY    37  32  81 SE6       29.84S WCI  33
WEBSTER CITY * MIX PCPN  43  32  65 S28G38    29.82R
IOWA FALLS *   CLOUDY    42  35  74 SE12      29.87R
$$

IAZ007>011-017>019-026>030-037>042-050>054-066-280300-
   NORTHEAST IOWA

CITY           SKY/WX    TMP DP  RH WIND       PRES   REMARKS
CEDAR RAPIDS   CLOUDY    46  33  60 SE6       29.90F
CHARLES CITY * MOCLDY    41  32  70 SE13      29.87S
CLINTON *      CLOUDY    46  35  65 E12       29.96F
DECORAH *      CLOUDY    41  34  75 SE10      29.89F
DUBUQUE        CLOUDY    45  33  63 SE12      29.95F
MONTICELLO *   CLOUDY    43  32  65 E7        29.92F
OELWEIN *      CLOUDY    46  34  61 SW15G32   29.92S
WATERLOO       CLOUDY    47  33  58 S10       29.90S
$$

IAZ064-065-067-068-078-280300-
   EAST CENTRAL IOWA

CITY           SKY/WX    TMP DP  RH WIND       PRES   REMARKS
DAVENPORT      CLOUDY    47  32  56 E9        29.95F
IOWA CITY      CLOUDY    50  32  50 SE9       29.92F
MUSCATINE *    CLOUDY    52  32  46 SE9       29.92F
QUAD CITIES    CLOUDY    47  33  58 E10       29.94F
$$

IAZ062-063-075>077-085>089-095>099-280300-
   SOUTHEAST IOWA

CITY           SKY/WX    TMP DP  RH WIND       PRES   REMARKS
BURLINGTON     MOCLDY    52  33  48 SE10      29.91F
FAIRFIELD *    CLOUDY    50  30  46 SE13      29.86F
FORT MADISON * CLOUDY    52  34  50 E8        29.91F
KEOKUK *       CLOUDY    52  32  46 E12       29.89F
CENTERVILLE *  MOCLDY    50  30  46 SE9       29.84F
OTTUMWA        CLOUDY    52  28  39 SE14      29.85F
WASHINGTON *   CLOUDY    46  34  61 SE10      29.90F
$$

ABBREVIATIONS USED IN REMARKS
   TC - TEMPERATURES IN CELSIUS
  WCI - WIND CHILL INDEX
   HX - HEAT INDEX
  VSB - VISIBILITY
$$





USA.gov is the U.S. government's official web portal to all federal, state and local government web resources and services.